Lexington Weather

Lexington, Massachusetts, USA

44°F
9/20/2020 11:12pm 
  • Lexington Conditions: Clear
  • Temperature: 44.2°F / 6.8°C 
  • Dew Point: 38.1°F 
  • Relative Humidity: 79
  • Wind: Calm, 10-min avg: Calm, gust: None
  • Barometer: 30.53 in Steady
  • Visibility: 10 miles
  • Rain Today: 0.00 in
  •   
Southeast Middlesex County - Special Weather Statement - Special Weather Statement
 - SEE ALL NEARBY ALERTS -

Regional Weather Roundup
for Boston / Norton, MA

        
000
ASUS41 KBOX 151104
RWRBOX

REGIONAL WEATHER ROUNDUP
NATIONAL WEATHER SERVICE BOSTON/NORTON MA
700 AM EDT TUE SEP 15 2020

NOTE:  "FAIR" INDICATES FEW OR NO CLOUDS BELOW 12,000 FEET WITH NO 
SIGNIFICANT WEATHER AND/OR OBSTRUCTIONS TO VISIBILITY.

MAZALL-151200-
EASTERN MASSACHUSETTS
  
CITY           SKY/WX    TMP DP  RH WIND       PRES   REMARKS
BOSTON         PTCLDY    50  38  63 NW8       30.32R                  
BEVERLY        CLEAR     42  38  85 NW7       30.30R                  
LAWRENCE       CLEAR     42  40  92 W3        30.34R                  
BEDFORD        CLEAR     38  36  92 CALM      30.31R                  
BLUE HILL        N/A     44  39  82 N9        30.29R                  
NORWOOD        CLEAR     37  35  92 S3        30.31R                  
MARSHFIELD     MOCLDY    59  43  55 VRB7G18   30.28R                  
PLYMOUTH       PTCLDY    49  43  80 NW5       30.29R                  
TAUNTON        CLEAR     42  38  85 CALM      30.29R                  
NEW BEDFORD    CLEAR     46  40  79 NW3       30.28R                  
$$

MAZALL-151200-
CAPE COD AND THE ISLANDS
  
CITY           SKY/WX    TMP DP  RH WIND       PRES   REMARKS
FALMOUTH       MOCLDY    57  43  58 NE9G16    30.27R                  
HYANNIS        PTCLDY    58  44  60 NE12      30.25R                  
CHATHAM        CLOUDY    60  43  53 NE8G21    30.27R                  
PROVINCETOWN   MOCLDY    58  44  60 NE13      30.28R                  
NANTUCKET      MOCLDY    59  44  57 NE15      30.25R                  
MARTHAS VNYRD  MOCLDY    57  43  59 N13G22    30.26R                  
$$
 
MAZALL-151200-
CENTRAL AND WESTERN MASSACHUSETTS
  
CITY           SKY/WX    TMP DP  RH WIND       PRES   REMARKS
WORCESTER      CLEAR     48  35  60 N7        30.31R                  
FITCHBURG      CLEAR     41  37  86 CALM      30.33R                  
ORANGE         CLEAR     38  37  97 CALM      30.35R                  
SPRINGFIELD    CLEAR     39  38  95 CALM      30.33R                  
WESTFIELD      CLEAR     37  36  96 S3        30.34R                  
NORTH ADAMS    CLEAR     37  35  92 CALM      30.36R                  
PITTSFIELD     CLEAR     38  36  92 CALM      30.33R                  
$$
 
RIZALL-151200-
RHODE ISLAND
  
CITY           SKY/WX    TMP DP  RH WIND       PRES   REMARKS
PROVIDENCE     PTCLDY    49  40  71 N9        30.31R                  
NEWPORT        CLEAR     51  40  65 N8        30.29R                  
BLOCK ISLAND   CLEAR     52  43  71 N12       30.29R                  
SMITHFIELD     CLEAR     41  40  96 CALM      30.31R                  
WESTERLY       CLEAR     47  39  74 N3        30.30S                  
$$
 
CTZALL-151200-
CONNECTICUT
  
CITY           SKY/WX    TMP DP  RH WIND       PRES   REMARKS
BRADLEY INTL   MOCLDY    45  39  79 N6        30.34R                  
HARTFORD       CLEAR     47  40  76 NE5       30.34R                  
BRIDGEPORT     CLEAR     51  40  65 N10       30.32R                  
DANBURY        CLEAR     41  39  93 SW3       30.35R                  
GROTON         CLEAR     48  40  73 N8        30.30R                  
NEW HAVEN      CLEAR     50  42  74 N10       30.32R                  
CHESTER        FAIR      46  41  81 NW6       30.32                   
MERIDEN        CLEAR     44  39  82 CALM      30.34R                  
WILLIMANTIC    CLEAR     42  39  89 CALM      30.33R                  
OXFORD         CLEAR     43  39  86 N7        30.34R                  
$$

MEZ002-015-021-024-NHZ003-005-008-011-012-014-VTZ005-008-151200-
NORTHERN NEW ENGLAND
  
CITY           SKY/WX    TMP DP  RH WIND       PRES   REMARKS
PORTLAND ME    CLEAR     42  37  82 CALM      30.32R                  
BANGOR ME      PTCLDY    41  37  86 W3        30.29R                  
CONCORD NH     CLEAR     36  34  92 CALM      30.33R                  
MANCHESTER NH  PTCLDY    47  39  74 CALM      30.31R                  
NASHUA NH      CLEAR     41  40  96 CALM      30.34R                  
PORTSMOUTH NH  PTCLDY    42  38  86 NW7       30.30                   
JAFFREY NH     CLEAR     36  34  92 CALM      30.33R                  
KEENE NH       CLEAR     37  36  96 CALM      30.35R                  
BURLINGTON VT  PTCLDY    40  37  89 CALM      30.37R                  
MT. WASHINGTON MOCLDY    36   1  23 NW35        N/A  WCI  22          
$$

NYZ052-076-151200-
EASTERN NEW YORK
  
CITY           SKY/WX    TMP DP  RH WIND       PRES   REMARKS
ALBANY         CLOUDY    39  39 100 NW3       30.37R                  
NEW YORK CITY  CLOUDY    55  40  56 N12       30.32R                  
$$
 
ANZALL-151200-
MARINE OBSERVATIONS
  
STATION/POSITION TIME  TEMP    WIND        PRES    VSBY  WAVE
                       AIR SEA DIR/SP/G                  HT/PER
                 (UTC) (F)     (DEG/KT/KT) (MB)    (MI)  (FT/S)
BOSTON BUOY      1050   58 64   30/ 16/ 21 1024.4R         5/ 6
BUZZARDS BAY     1000          360/ 21/ 23 1025.5R
NANTUCKET SOUND  1050      70   20/ 17/ 21   N/A           2/ 4
MASS BAY-STELLWA 1004   58      50/ 16/ 21 1023.0R  1 7/8  5/ 5
ISLE OF SHOALS   1000   52     350/  8/  9 1025.2R
S OF BLOCK IS    1026      70                N/A           6/13
$$

......................KEY.........................
  SKY/WX - SKY CONDITION/PRESENT WEATHER
  TMP    - TEMPERATURE IN FAHRENHEIT
  DWPT   - DEWPOINT IN FAHRENHEIT
  RH     - RELATIVE HUMIDITY IN PERCENT
  WIND   - DIRECTION AND SPEED IN MPH
  PRES   - MEAN SEA LEVEL PRESSURE IN INCHES OF HG
  WCI    - WIND CHILL INDEX
  VSB    - VISIBILITY IN MILES
  HX     - HEAT INDEX
  TC     - TEMPERATURE IN CELSIUS
  VRB    - VARIABLE WIND DIRECTION
  N/A    - NOT AVAILABLE
  
      

Other recent Regional Weather Roundups

Sun Sep 20, 11:05pm

Sun Sep 20, 10:04pm

Sun Sep 20, 9:04pm

Sun Sep 20, 8:05pm

Sun Sep 20, 7:04pm

Sun Sep 20, 6:04pm

Sun Sep 20, 5:04pm

Sun Sep 20, 4:04pm

Sun Sep 20, 3:05pm

Sun Sep 20, 2:05pm

Sun Sep 20, 1:04pm

Sun Sep 20, 12:04pm

Sun Sep 20, 11:04am

Sun Sep 20, 10:04am

Sun Sep 20, 9:04am

Sun Sep 20, 8:04am

Sun Sep 20, 7:04am

Sun Sep 20, 6:04am

Sun Sep 20, 5:04am

Sun Sep 20, 4:04am

Sun Sep 20, 3:05am

Sun Sep 20, 2:04am

Sun Sep 20, 1:04am

Sun Sep 20, 12:04am

Sat Sep 19, 11:04pm

Sat Sep 19, 10:04pm

Sat Sep 19, 9:04pm

Sat Sep 19, 8:05pm

Sat Sep 19, 7:04pm

Sat Sep 19, 6:05pm

Sat Sep 19, 5:04pm

Sat Sep 19, 4:04pm

Sat Sep 19, 3:04pm

Sat Sep 19, 2:04pm

Sat Sep 19, 1:05pm

Sat Sep 19, 12:04pm

Sat Sep 19, 11:04am

Sat Sep 19, 10:04am

Sat Sep 19, 9:05am

Sat Sep 19, 8:04am

Sat Sep 19, 7:04am

Sat Sep 19, 6:04am

Sat Sep 19, 5:04am

Sat Sep 19, 4:04am

Sat Sep 19, 3:04am

Sat Sep 19, 2:04am

Sat Sep 19, 1:04am

Sat Sep 19, 12:04am

Fri Sep 18, 11:05pm

Fri Sep 18, 10:04pm

Fri Sep 18, 9:04pm

Fri Sep 18, 8:04pm

Fri Sep 18, 7:04pm

Fri Sep 18, 6:04pm

Fri Sep 18, 5:05pm

Fri Sep 18, 4:04pm

Fri Sep 18, 3:05pm

Fri Sep 18, 2:04pm

Fri Sep 18, 1:04pm

Fri Sep 18, 12:04pm

Fri Sep 18, 11:05am

Fri Sep 18, 10:05am

Fri Sep 18, 9:04am

Fri Sep 18, 8:04am

Fri Sep 18, 7:04am

Fri Sep 18, 6:04am

Fri Sep 18, 5:04am

Fri Sep 18, 4:04am

Fri Sep 18, 3:04am

Fri Sep 18, 2:04am

Fri Sep 18, 1:04am

Fri Sep 18, 12:04am

Thu Sep 17, 11:05pm

Thu Sep 17, 10:04pm

Thu Sep 17, 9:04pm

Thu Sep 17, 8:05pm

Thu Sep 17, 7:04pm

Thu Sep 17, 6:04pm

Thu Sep 17, 5:04pm

Thu Sep 17, 4:04pm

Thu Sep 17, 3:05pm

Thu Sep 17, 2:04pm

Thu Sep 17, 1:04pm

Thu Sep 17, 12:04pm

Thu Sep 17, 11:04am

Thu Sep 17, 10:04am

Thu Sep 17, 9:04am

Thu Sep 17, 8:04am

Thu Sep 17, 7:04am

Thu Sep 17, 6:04am

Thu Sep 17, 5:04am

Thu Sep 17, 4:04am

Thu Sep 17, 3:04am

Thu Sep 17, 2:05am

Thu Sep 17, 1:05am

Thu Sep 17, 12:04am

Wed Sep 16, 11:04pm

Wed Sep 16, 10:04pm

Wed Sep 16, 9:04pm

Wed Sep 16, 8:05pm

Wed Sep 16, 7:04pm

Wed Sep 16, 6:04pm

Wed Sep 16, 5:04pm

Wed Sep 16, 4:04pm

Wed Sep 16, 3:04pm

Wed Sep 16, 2:04pm

Wed Sep 16, 1:04pm

Wed Sep 16, 12:04pm

Wed Sep 16, 11:04am

Wed Sep 16, 10:04am

Wed Sep 16, 9:04am

Wed Sep 16, 8:04am

Wed Sep 16, 7:04am

Wed Sep 16, 6:04am

Wed Sep 16, 5:04am

Wed Sep 16, 4:04am

Wed Sep 16, 3:04am

Wed Sep 16, 2:04am

Wed Sep 16, 1:04am

Wed Sep 16, 12:05am

Tue Sep 15, 11:04pm

Tue Sep 15, 10:04pm

Tue Sep 15, 9:04pm

Tue Sep 15, 8:04pm

Tue Sep 15, 7:04pm

Tue Sep 15, 6:04pm

Tue Sep 15, 5:04pm

Tue Sep 15, 4:05pm

Tue Sep 15, 3:04pm

Tue Sep 15, 2:04pm

Tue Sep 15, 1:04pm

Tue Sep 15, 12:04pm

Tue Sep 15, 11:04am

Tue Sep 15, 10:04am

Tue Sep 15, 9:04am

Tue Sep 15, 8:04am

Tue Sep 15, 6:04am

Tue Sep 15, 5:04am

Tue Sep 15, 4:04am

Tue Sep 15, 3:04am

Tue Sep 15, 2:04am

Tue Sep 15, 1:04am

Tue Sep 15, 12:05am

Mon Sep 14, 11:04pm

Mon Sep 14, 10:04pm

Mon Sep 14, 9:04pm

Mon Sep 14, 8:04pm

Mon Sep 14, 7:04pm

Mon Sep 14, 6:04pm

Mon Sep 14, 5:04pm

Mon Sep 14, 4:05pm

Mon Sep 14, 3:04pm

Mon Sep 14, 2:05pm

Mon Sep 14, 1:04pm

Mon Sep 14, 12:04pm

Mon Sep 14, 11:04am

Mon Sep 14, 10:05am

Mon Sep 14, 9:04am

Mon Sep 14, 8:04am

Mon Sep 14, 7:04am

Mon Sep 14, 6:04am

Mon Sep 14, 5:04am

Mon Sep 14, 4:04am

Mon Sep 14, 3:04am

Mon Sep 14, 2:04am

Mon Sep 14, 1:04am

Mon Sep 14, 12:04am

Meta data:

ID: 04879b70-c904-47b8-958d-c2233ed0b6a9
Link: https://api.weather.gov/products/04879b70-c904-47b8-958d-c2233ed0b6a9